SCP
0 0 0 0 0 0 0 0 0 0 0 0 0 0 0 0 0 0 0 0 0 0 0 0 1 1 1 1 1 1 1 1 1 1 1 1 0 0 0 0 0 0 0 0 0 0 0 0 0
0 0 0 0 0 0 0 0 0 0 0 0 0 0 0 0 0 0 0 0 0 0 0 0 1 1 1 1 1 1 1 1 1 1 1 1 1 0 0 0 0 0 0 0 0 0 0 0 0
0 0 0 0 0 0 0 0 0 0 0 0 0 0 0 0 0 0 1 1 0 0 0 1 1 1 1 1 1 1 1 1 1 1 1 1 1 1 1 0 0 0 0 0 0 0 0 0 0
0 0 0 0 0 0 0 0 0 0 0 0 0 0 0 0 0 0 1 1 1 1 1 1 1 1 1 1 1 1 1 1 1 1 1 1 1 0 1 0 0 0 0 0 0 0 0 0 0
0 0 0 0 0 0 0 0 0 0 0 0 0 0 0 0 0 0 0 0 0 0 0 0 0 1 1 2 1 1 1 1 1 1 1 1 1 1 1 0 0 0 0 1 0 0 0 0 0
0 0 0 0 0 0 0 0 0 0 0 0 0 0 0 0 0 0 0 0 0 0 0 0 0 0 0 1 1 1 1 1 1 1 1 1 1 1 1 0 0 0 0 0 0 0 0 0 0
0 0 0 0 0 0 0 0 0 0 0 0 0 0 0 0 0 0 0 0 0 0 0 0 0 0 0 0 0 1 1 1 0 1 1 1 1 1 1 1 1 0 0 0 0 0 0 0 0
0 0 0 0 0 0 0 0 0 0 0 0 0 0 0 0 0 0 0 0 0 0 0 0 0 0 0 0 0 0 0 1 1 1 1 1 1 1 1 1 1 1 1 1 0 0 0 0 0
0 0 0 0 0 0 0 0 0 0 0 0 0 0 0 0 0 0 0 0 0 0 0 0 0 0 0 0 0 0 0 0 0 1 0 1 1 1 1 1 1 1 1 1 0 0 0 0 0
0 0 0 0 0 0 0 0 0 0 0 0 0 0 0 0 0 0 0 0 0 0 0 0 0 0 0 0 0 0 0 0 0 0 1 0 1 1 1 1 1 1 1 1 1 0 0 0 0
0 0 0 0 0 0 0 0 0 0 0 0 0 0 0 0 0 0 0 0 0 0 0 0 0 0 0 0 0 0 0 0 0 0 0 0 1 1 1 1 1 1 1 1 1 1 0 0 0
0 0 0 0 0 0 0 0 0 0 0 0 0 0 0 0 0 0 0 0 0 0 0 0 0 0 0 0 0 0 0 0 0 0 0 0 0 1 1 1 1 1 2 1 1 0 0 0 0
0 0 0 0 0 0 0 0 0 0 0 0 0 0 0 0 0 0 0 0 0 0 0 0 0 0 0 0 0 0 0 0 0 0 0 0 0 0 1 1 1 1 1 1 1 0 0 0 0
0 0 0 0 0 0 0 0 0 0 0 0 0 0 0 0 0 0 0 0 0 0 0 0 0 0 -0 -0 -0 -0 -0 0 0 0 0 0 0 0 0 1 1 1 1 1 1 1 0 0 0
0 0 0 0 0 0 0 0 0 0 0 0 0 0 0 0 0 0 0 0 0 0 0 0 0 0 -0 -0 -0 -0 -0 -0 0 0 0 0 0 0 0 0 1 1 1 1 1 1 0 0 0
0 0 0 0 0 0 0 0 0 0 0 0 0 0 0 0 0 0 0 0 0 0 0 0 -0 -0 -0 -0 -0 0 0 -0 -0 0 0 0 0 0 0 0 0 0 2 2 1 1 0 0 0
0 0 0 0 0 0 0 0 0 0 0 0 0 0 0 0 0 0 0 0 0 0 0 0 -0 -0 0 0 0 0 0 0 -0 -0 0 0 0 0 0 0 0 0 0 1 1 1 1 0 0
0 0 0 0 0 0 0 0 0 0 0 0 0 0 0 0 0 0 0 0 0 0 -0 -0 -0 -0 -0 -0 0 0 0 0 0 0 0 0 0 0 0 0 0 0 0 1 2 1 1 1 0
0 0 0 0 0 0 0 0 0 0 0 0 0 0 0 0 0 0 0 0 0 0 -0 -0 -0 -0 -0 -0 -0 0 -0 0 0 0 0 0 0 0 0 0 0 0 0 0 0 1 1 1 1
0 0 0 0 0 0 0 0 0 0 0 0 0 0 0 0 0 0 0 0 0 0 0 0 -0 -0 -0 -0 -0 0 0 -0 -0 0 0 0 0 0 0 0 0 0 0 0 0 0 2 1 1
0 0 0 0 0 0 0 0 0 0 0 0 0 0 0 0 0 0 0 0 0 0 0 0 0 0 0 0 0 0 0 0 0 0 0 0 0 0 0 0 0 0 0 0 0 1 1 1 1
0 0 0 0 0 0 0 0 0 0 0 0 0 0 0 0 0 0 0 0 0 0 0 0 0 0 0 0 0 0 -0 -0 0 0 0 0 0 0 0 0 0 0 0 0 0 0 0 0 1
0 0 0 0 0 0 0 0 0 0 0 0 0 0 0 0 0 0 0 0 0 0 0 0 0 0 0 0 0 0 0 0 0 0 0 0 0 0 0 0 0 0 0 0 0 0 0 0 1
0 0 0 0 0 0 0 0 0 0 0 0 0 0 0 0 0 0 0 0 0 0 0 0 0 0 0 0 0 0 0 0 0 0 0 0 0 0 0 0 0 0 0 0 0 1 0 0 1
0 0 0 0 0 0 0 0 0 0 0 0 0 0 0 0 0 0 0 0 0 0 0 0 0 0 0 0 0 0 0 0 0 0 0 0 0 0 0 0 0 0 0 0 0 0 0 0 0
0 0 0 0 0 0 0 0 0 0 0 0 0 0 0 0 0 0 0 0 0 0 0 0 0 -0 -0 0 0 -0 0 0 0 0 0 0 0 0 0 0 0 0 0 0 0 0 0 0 0
0 0 0 0 0 0 0 0 0 0 0 0 0 0 0 0 0 0 0 0 0 0 0 0 -0 -0 -0 0 0 -0 -0 0 0 0 0 0 0 0 0 0 0 0 0 0 0 0 0 0 0
0 0 0 0 0 0 0 0 0 0 0 0 0 0 0 0 0 0 0 0 0 0 0 0 -0 -0 -0 -0 -0 -0 -0 0 0 0 0 0 0 0 0 0 0 0 0 0 0 0 0 0 0
0 0 0 0 0 0 0 0 0 0 0 0 0 0 0 0 0 0 0 0 0 0 0 0 0 -0 -0 -0 -0 -0 -0 0 0 0 0 0 0 -0 -0 -0 0 0 0 0 0 0 0 0 0
0 0 0 0 0 0 0 0 0 0 0 0 0 0 0 0 0 0 0 0 0 0 -0 -0 -0 -0 -0 -0 -0 0 0 0 -0 0 0 -0 -0 -0 -0 -0 -0 0 0 0 0 0 0 0 0
Wind_Speed_500mb
7 8 12 4 8 10 3 1 4 17 11 28 26 37 23 22 8 7 10 22 12 10 9 13 14 13 11 12 14 15 15 16 12 8 5 9 14 16 15 15 16 18 19 19 19 18 14 10 8
5 7 5 4 9 8 9 6 10 7 3 5 27 26 24 8 18 13 13 17 15 11 6 1 2 5 8 12 15 16 16 18 15 11 8 8 10 13 14 14 15 16 16 17 16 15 13 12 12
3 4 3 8 7 6 6 9 19 16 8 8 10 23 12 12 23 13 30 33 29 32 28 21 16 15 14 15 15 16 17 18 18 14 11 10 10 10 12 13 13 15 16 18 17 16 14 13 14
2 2 10 8 7 3 4 15 10 8 15 31 22 13 16 29 6 18 23 29 29 32 31 26 15 8 10 15 17 19 20 21 23 20 17 15 15 14 14 14 13 15 17 19 19 19 17 16 16
5 6 8 8 2 4 5 15 20 7 13 11 9 13 15 30 15 14 17 21 22 22 16 13 13 14 8 4 7 15 21 24 26 26 22 19 18 18 17 16 16 17 19 21 21 21 20 20 20
7 5 9 5 6 9 7 22 11 23 26 24 30 21 20 29 15 20 16 19 15 13 12 10 7 6 6 1 8 12 15 21 27 28 27 25 24 23 22 21 21 21 22 23 23 23 22 23 23
11 7 6 9 3 6 7 14 12 12 18 18 6 11 19 26 32 25 20 17 11 8 5 7 8 9 11 11 8 12 11 19 23 28 30 31 29 29 28 29 28 26 26 26 26 25 24 25 26
8 9 5 3 2 0 11 7 5 14 13 14 10 7 9 18 22 24 19 16 17 20 17 10 9 8 6 14 16 19 19 22 23 29 34 36 36 35 35 36 35 32 31 29 29 28 28 28 28
6 9 5 10 11 5 8 7 7 9 14 22 14 24 22 23 15 11 9 12 14 16 21 21 19 17 12 11 15 25 18 25 30 32 34 40 43 42 43 43 41 39 36 35 33 31 31 31 31
9 7 15 9 8 8 8 2 8 7 17 22 35 29 22 18 9 10 12 19 21 20 23 26 26 24 23 24 24 22 29 26 33 36 37 37 43 46 48 48 47 45 42 40 39 37 36 36 36
4 9 7 5 9 7 7 6 4 4 9 12 30 26 21 16 10 11 18 24 29 30 29 28 27 30 32 30 31 32 31 35 36 39 44 43 43 48 52 55 55 54 51 49 47 45 43 41 40
3 3 4 5 7 5 12 12 10 11 14 38 39 29 22 17 16 17 15 18 24 30 34 34 34 34 36 43 45 41 40 42 42 42 44 50 49 51 54 59 62 62 60 58 55 53 49 46 44
4 6 11 11 23 17 8 6 17 23 40 41 36 28 22 21 21 20 22 23 25 30 35 41 44 45 47 50 57 59 56 51 52 50 47 47 53 54 62 62 66 70 69 67 64 61 56 53 49
10 16 26 23 23 17 15 5 14 20 34 31 28 27 23 20 22 17 19 25 30 35 38 42 46 51 58 65 69 72 72 69 64 63 57 54 53 61 56 64 73 70 76 76 71 67 64 60 55
10 11 13 11 6 12 29 10 10 25 24 26 22 21 20 23 22 27 31 34 36 37 40 44 49 54 59 67 74 78 79 75 70 67 69 67 60 63 59 74 62 81 79 82 77 75 70 67 62
7 7 8 4 3 2 17 7 5 7 18 19 16 15 19 23 29 30 32 36 41 45 50 53 56 61 65 71 73 70 71 81 79 70 68 68 72 65 70 68 78 60 89 85 88 84 78 76 73
11 6 6 14 2 1 4 5 6 9 17 15 13 14 18 22 26 35 41 46 49 53 55 57 60 64 66 68 69 73 72 68 76 76 68 64 70 71 71 80 72 76 52 85 90 91 87 84 82
7 7 9 9 8 6 6 6 4 9 12 11 10 14 20 26 34 37 39 42 47 52 57 62 65 70 71 70 71 73 72 70 64 67 70 60 61 69 75 78 80 74 71 48 91 94 95 90 87
3 5 9 11 11 5 4 8 11 7 7 7 12 19 26 31 34 35 42 48 53 56 61 66 70 71 74 76 78 80 81 77 68 63 61 60 51 55 65 73 75 74 79 92 65 93 101 95 85
6 9 12 14 11 12 10 11 7 10 4 3 8 17 26 32 35 38 45 50 54 58 62 65 69 72 73 73 75 73 74 73 69 62 59 54 53 47 51 59 65 71 74 87 100 86 95 101 86
10 10 10 14 7 3 8 9 11 5 9 5 3 13 22 34 42 45 49 54 55 60 66 69 70 71 72 73 76 78 76 72 70 63 63 57 53 53 55 59 64 70 74 70 91 89 72 67 73
11 18 23 13 4 10 6 13 8 10 10 8 4 11 22 31 36 40 47 52 59 62 65 67 69 70 71 72 74 77 78 78 73 66 66 57 57 58 53 55 60 66 73 70 67 78 113 80 66
11 10 18 15 10 1 6 2 2 12 12 13 7 6 15 24 33 39 45 51 54 60 65 67 69 70 71 72 71 71 69 69 73 64 57 53 54 49 44 43 50 61 70 72 71 66 88 110 97
6 2 10 8 6 8 13 12 26 11 8 9 11 2 9 21 29 35 41 45 50 55 62 67 70 71 71 70 65 63 63 65 65 57 58 59 56 51 40 39 48 54 63 71 68 70 79 90 94
9 9 4 4 1 14 14 14 18 8 6 7 14 7 7 19 27 34 42 47 53 58 63 66 68 71 69 63 62 57 55 52 50 56 61 55 55 48 41 40 39 37 48 57 56 70 80 75 86
15 19 10 11 9 7 7 12 11 6 16 17 15 8 6 14 22 30 39 43 49 52 57 62 66 71 63 61 61 59 52 51 47 46 49 47 46 46 43 49 38 36 40 51 52 55 68 73 75
5 11 27 11 6 4 7 11 3 13 11 18 16 7 8 12 20 27 33 37 40 44 48 54 59 62 63 60 59 58 55 52 47 44 37 34 35 36 31 30 22 33 54 48 57 52 55 46 61
16 8 6 7 9 10 7 8 10 18 23 16 12 12 3 8 14 19 27 32 37 37 38 41 47 53 57 58 59 60 58 51 49 42 36 33 26 16 15 16 7 14 37 49 54 59 57 64 55
9 6 7 4 6 5 2 11 4 8 19 22 24 16 7 4 9 14 23 28 34 35 38 38 42 45 53 57 61 62 58 53 51 48 46 48 39 32 21 28 25 26 36 43 60 55 50 57 53
12 12 3 6 7 5 6 16 6 2 15 34 29 20 10 1 3 11 20 26 30 38 38 41 42 43 46 52 55 58 60 61 64 63 63 66 65 57 60 60 58 62 61 64 66 62 58 57 54
Wind_Direction_500mb
313 310 317 339 43 63 36 83 261 347 43 59 85 83 102 63 45 123 320 347 21 78 152 180 189 191 197 213 216 214 211 204 202 193 153 144 146 157 165 165 169 172 174 178 184 186 188 205 212
327 317 316 75 81 57 296 279 283 151 216 112 59 72 55 57 61 37 29 16 36 60 58 118 291 278 250 233 230 228 222 211 204 202 195 185 172 167 170 173 177 180 178 185 194 203 208 210 211
351 342 16 86 94 119 252 289 296 326 48 149 95 52 56 344 34 53 50 49 56 66 63 51 23 350 317 289 265 239 230 222 211 205 209 216 211 204 197 193 191 195 190 198 204 209 209 210 211
22 33 61 77 99 207 238 296 266 251 61 82 98 59 79 46 69 40 69 80 83 81 75 71 53 24 331 312 285 261 240 227 221 215 217 225 229 224 219 217 213 212 205 205 208 209 210 212 219
67 45 57 77 171 231 246 314 17 94 85 65 99 91 72 44 90 109 116 107 108 111 116 106 92 73 46 340 296 290 268 243 229 224 223 228 234 232 231 230 230 225 218 214 213 210 210 212 215
58 56 62 124 294 302 344 19 5 73 82 70 100 95 76 65 137 94 112 114 116 131 125 117 100 74 62 118 274 282 275 265 246 233 231 233 234 235 234 236 235 235 230 225 222 218 215 213 215
102 75 140 158 206 348 330 360 18 36 56 37 95 82 109 80 86 98 95 93 92 91 135 84 44 15 335 330 298 253 255 267 251 246 241 240 240 240 239 238 237 237 235 231 229 227 223 219 220
98 95 88 311 179 122 331 25 44 40 38 79 87 89 103 108 105 103 102 87 68 58 56 47 13 331 322 310 311 294 240 243 245 252 245 246 245 243 244 241 239 238 239 237 234 232 230 228 229
101 65 155 188 155 182 331 15 61 78 85 65 80 106 117 152 141 139 121 85 62 42 32 28 20 18 353 306 294 297 295 253 242 247 253 252 248 246 245 245 243 241 239 238 237 235 234 234 235
83 107 215 216 170 170 170 287 334 123 123 94 93 104 123 123 130 272 7 17 17 18 10 358 355 356 350 344 337 307 286 306 271 259 254 255 256 255 249 247 245 243 242 239 237 236 234 235 236
81 172 211 229 245 192 207 188 167 15 86 184 146 121 118 115 112 65 37 20 8 1 354 351 347 341 339 338 332 329 322 289 288 276 264 257 257 255 254 249 244 241 239 239 237 235 235 237 237
39 234 179 294 320 214 176 178 94 104 128 137 142 138 132 110 75 54 31 6 349 347 344 345 340 332 328 324 322 319 315 308 302 304 292 273 265 264 258 256 250 244 241 241 239 237 237 238 237
166 313 307 281 293 257 218 202 130 105 135 140 132 126 101 79 63 39 23 7 352 340 337 336 335 329 323 317 313 309 303 297 296 292 291 284 275 269 266 258 256 249 246 242 241 240 237 237 237
311 290 285 289 267 228 179 172 115 146 141 126 120 99 82 62 44 25 8 358 351 346 340 337 330 325 322 319 313 308 302 296 287 284 283 277 281 269 266 268 258 253 251 246 244 243 241 238 236
295 319 320 244 254 231 208 56 50 137 160 127 103 86 67 48 28 19 8 358 348 344 340 335 331 327 319 315 313 310 306 300 294 285 271 270 267 273 269 264 262 254 252 251 247 246 242 239 237
355 53 356 297 99 299 162 191 94 134 163 98 83 63 44 33 24 10 359 354 352 348 346 343 337 331 326 320 314 309 305 302 299 290 280 267 261 256 262 266 261 256 254 249 249 245 243 239 236
2 244 221 317 177 236 70 159 102 136 153 104 81 54 34 18 9 6 3 358 355 351 344 338 335 330 326 321 315 311 308 303 298 297 287 276 266 259 253 254 260 259 257 249 248 247 243 241 236
247 254 263 244 303 52 61 140 118 86 127 100 60 35 22 11 6 359 354 352 351 349 347 343 339 335 331 329 324 319 315 309 302 298 296 286 273 263 258 254 252 251 253 254 252 248 244 241 240
99 283 283 272 263 320 269 192 184 152 100 61 29 18 11 10 4 360 359 358 355 352 350 347 342 339 337 334 332 328 327 322 316 306 299 296 286 272 264 258 256 253 251 256 261 247 241 235 236
232 257 266 285 261 190 171 229 200 218 180 111 31 11 3 360 1 360 1 360 358 356 353 350 348 347 346 344 339 335 330 327 325 317 308 300 294 287 280 264 253 252 253 247 245 263 229 227 224
223 210 235 235 315 62 150 252 204 190 162 160 29 12 8 4 359 359 1 2 360 359 357 355 352 349 346 343 339 337 334 331 332 327 317 309 301 295 284 268 257 251 249 252 247 256 214 228 221
251 208 234 224 169 243 157 280 224 183 181 192 201 5 5 3 2 1 0 3 4 3 0 358 354 351 347 344 342 340 336 331 329 325 320 315 303 298 293 276 263 250 246 245 243 246 242 255 241
233 244 208 204 201 67 194 256 210 130 220 202 161 24 7 5 1 5 6 6 7 5 3 0 357 352 349 346 346 340 334 330 328 326 320 315 309 302 297 286 270 252 245 238 237 236 224 212 234
5 351 39 53 92 261 182 180 273 186 208 137 156 107 3 5 10 9 9 8 12 10 7 6 2 357 353 349 347 346 339 334 332 328 317 313 308 303 293 285 280 262 246 237 232 228 225 222 231
169 96 294 278 146 246 186 197 259 180 167 144 154 152 16 8 13 10 10 11 17 14 10 9 6 2 358 353 352 353 348 342 334 322 322 320 315 312 299 279 267 257 258 238 230 232 230 233 218
200 190 192 235 214 263 120 222 258 137 141 137 137 131 52 15 15 15 13 15 18 16 13 12 10 7 0 359 360 3 355 352 346 339 331 327 318 306 295 292 272 240 239 229 227 227 231 239 228
254 195 231 251 360 312 248 297 304 142 156 162 161 142 51 10 15 17 16 16 16 17 17 17 13 10 8 9 8 7 5 5 4 2 350 341 320 307 306 294 269 235 238 224 225 213 218 231 240
206 170 97 80 225 227 258 269 240 219 208 178 168 158 97 358 7 17 20 21 23 17 16 19 22 17 15 21 21 23 15 19 20 24 22 24 22 336 335 358 323 196 210 207 219 214 213 213 206
3 359 99 310 242 235 247 256 216 232 191 177 181 168 164 321 4 24 26 24 27 25 21 22 24 25 20 25 29 33 33 38 40 39 40 44 43 50 44 54 72 103 140 164 163 161 154 180 185
181 177 114 201 215 241 157 260 348 101 135 160 169 167 172 324 55 41 30 28 30 27 27 30 29 31 25 23 34 40 44 49 56 57 59 58 55 61 70 73 72 72 94 116 134 142 126 125 125
Wind_Speed_850mb
7 8 12 4 8 10 3 1 4 17 11 28 26 37 23 22 8 7 10 22 12 10 9 13 14 13 11 12 14 15 15 16 12 8 5 9 14 16 15 15 16 18 19 19 19 18 14 10 8
5 7 5 4 9 8 9 6 10 7 3 5 27 26 24 8 18 13 13 17 15 11 6 1 2 5 8 12 15 16 16 18 15 11 8 8 10 13 14 14 15 16 16 17 16 15 13 12 12
3 4 3 8 7 6 6 9 19 16 8 8 10 23 12 12 23 13 30 33 29 32 28 21 16 15 14 15 15 16 17 18 18 14 11 10 10 10 12 13 13 15 16 18 17 16 14 13 14
2 2 10 8 7 3 4 15 10 8 15 31 22 13 16 29 6 18 23 29 29 32 31 26 15 8 10 15 17 19 20 21 23 20 17 15 15 14 14 14 13 15 17 19 19 19 17 16 16
5 6 8 8 2 4 5 15 20 7 13 11 9 13 15 30 15 14 17 21 22 22 16 13 13 14 8 4 7 15 21 24 26 26 22 19 18 18 17 16 16 17 19 21 21 21 20 20 20
7 5 9 5 6 9 7 22 11 23 26 24 30 21 20 29 15 20 16 19 15 13 12 10 7 6 6 1 8 12 15 21 27 28 27 25 24 23 22 21 21 21 22 23 23 23 22 23 23
11 7 6 9 3 6 7 14 12 12 18 18 6 11 19 26 32 25 20 17 11 8 5 7 8 9 11 11 8 12 11 19 23 28 30 31 29 29 28 29 28 26 26 26 26 25 24 25 26
8 9 5 3 2 0 11 7 5 14 13 14 10 7 9 18 22 24 19 16 17 20 17 10 9 8 6 14 16 19 19 22 23 29 34 36 36 35 35 36 35 32 31 29 29 28 28 28 28
6 9 5 10 11 5 8 7 7 9 14 22 14 24 22 23 15 11 9 12 14 16 21 21 19 17 12 11 15 25 18 25 30 32 34 40 43 42 43 43 41 39 36 35 33 31 31 31 31
9 7 15 9 8 8 8 2 8 7 17 22 35 29 22 18 9 10 12 19 21 20 23 26 26 24 23 24 24 22 29 26 33 36 37 37 43 46 48 48 47 45 42 40 39 37 36 36 36
4 9 7 5 9 7 7 6 4 4 9 12 30 26 21 16 10 11 18 24 29 30 29 28 27 30 32 30 31 32 31 35 36 39 44 43 43 48 52 55 55 54 51 49 47 45 43 41 40
3 3 4 5 7 5 12 12 10 11 14 38 39 29 22 17 16 17 15 18 24 30 34 34 34 34 36 43 45 41 40 42 42 42 44 50 49 51 54 59 62 62 60 58 55 53 49 46 44
4 6 11 11 23 17 8 6 17 23 40 41 36 28 22 21 21 20 22 23 25 30 35 41 44 45 47 50 57 59 56 51 52 50 47 47 53 54 62 62 66 70 69 67 64 61 56 53 49
10 16 26 23 23 17 15 5 14 20 34 31 28 27 23 20 22 17 19 25 30 35 38 42 46 51 58 65 69 72 72 69 64 63 57 54 53 61 56 64 73 70 76 76 71 67 64 60 55
10 11 13 11 6 12 29 10 10 25 24 26 22 21 20 23 22 27 31 34 36 37 40 44 49 54 59 67 74 78 79 75 70 67 69 67 60 63 59 74 62 81 79 82 77 75 70 67 62
7 7 8 4 3 2 17 7 5 7 18 19 16 15 19 23 29 30 32 36 41 45 50 53 56 61 65 71 73 70 71 81 79 70 68 68 72 65 70 68 78 60 89 85 88 84 78 76 73
11 6 6 14 2 1 4 5 6 9 17 15 13 14 18 22 26 35 41 46 49 53 55 57 60 64 66 68 69 73 72 68 76 76 68 64 70 71 71 80 72 76 52 85 90 91 87 84 82
7 7 9 9 8 6 6 6 4 9 12 11 10 14 20 26 34 37 39 42 47 52 57 62 65 70 71 70 71 73 72 70 64 67 70 60 61 69 75 78 80 74 71 48 91 94 95 90 87
3 5 9 11 11 5 4 8 11 7 7 7 12 19 26 31 34 35 42 48 53 56 61 66 70 71 74 76 78 80 81 77 68 63 61 60 51 55 65 73 75 74 79 92 65 93 101 95 85
6 9 12 14 11 12 10 11 7 10 4 3 8 17 26 32 35 38 45 50 54 58 62 65 69 72 73 73 75 73 74 73 69 62 59 54 53 47 51 59 65 71 74 87 100 86 95 101 86
10 10 10 14 7 3 8 9 11 5 9 5 3 13 22 34 42 45 49 54 55 60 66 69 70 71 72 73 76 78 76 72 70 63 63 57 53 53 55 59 64 70 74 70 91 89 72 67 73
11 18 23 13 4 10 6 13 8 10 10 8 4 11 22 31 36 40 47 52 59 62 65 67 69 70 71 72 74 77 78 78 73 66 66 57 57 58 53 55 60 66 73 70 67 78 113 80 66
11 10 18 15 10 1 6 2 2 12 12 13 7 6 15 24 33 39 45 51 54 60 65 67 69 70 71 72 71 71 69 69 73 64 57 53 54 49 44 43 50 61 70 72 71 66 88 110 97
6 2 10 8 6 8 13 12 26 11 8 9 11 2 9 21 29 35 41 45 50 55 62 67 70 71 71 70 65 63 63 65 65 57 58 59 56 51 40 39 48 54 63 71 68 70 79 90 94
9 9 4 4 1 14 14 14 18 8 6 7 14 7 7 19 27 34 42 47 53 58 63 66 68 71 69 63 62 57 55 52 50 56 61 55 55 48 41 40 39 37 48 57 56 70 80 75 86
15 19 10 11 9 7 7 12 11 6 16 17 15 8 6 14 22 30 39 43 49 52 57 62 66 71 63 61 61 59 52 51 47 46 49 47 46 46 43 49 38 36 40 51 52 55 68 73 75
5 11 27 11 6 4 7 11 3 13 11 18 16 7 8 12 20 27 33 37 40 44 48 54 59 62 63 60 59 58 55 52 47 44 37 34 35 36 31 30 22 33 54 48 57 52 55 46 61
16 8 6 7 9 10 7 8 10 18 23 16 12 12 3 8 14 19 27 32 37 37 38 41 47 53 57 58 59 60 58 51 49 42 36 33 26 16 15 16 7 14 37 49 54 59 57 64 55
9 6 7 4 6 5 2 11 4 8 19 22 24 16 7 4 9 14 23 28 34 35 38 38 42 45 53 57 61 62 58 53 51 48 46 48 39 32 21 28 25 26 36 43 60 55 50 57 53
12 12 3 6 7 5 6 16 6 2 15 34 29 20 10 1 3 11 20 26 30 38 38 41 42 43 46 52 55 58 60 61 64 63 63 66 65 57 60 60 58 62 61 64 66 62 58 57 54
Wind_Direction_850mb
313 310 317 339 43 63 36 83 261 347 43 59 85 83 102 63 45 123 320 347 21 78 152 180 189 191 197 213 216 214 211 204 202 193 153 144 146 157 165 165 169 172 174 178 184 186 188 205 212
327 317 316 75 81 57 296 279 283 151 216 112 59 72 55 57 61 37 29 16 36 60 58 118 291 278 250 233 230 228 222 211 204 202 195 185 172 167 170 173 177 180 178 185 194 203 208 210 211
351 342 16 86 94 119 252 289 296 326 48 149 95 52 56 344 34 53 50 49 56 66 63 51 23 350 317 289 265 239 230 222 211 205 209 216 211 204 197 193 191 195 190 198 204 209 209 210 211
22 33 61 77 99 207 238 296 266 251 61 82 98 59 79 46 69 40 69 80 83 81 75 71 53 24 331 312 285 261 240 227 221 215 217 225 229 224 219 217 213 212 205 205 208 209 210 212 219
67 45 57 77 171 231 246 314 17 94 85 65 99 91 72 44 90 109 116 107 108 111 116 106 92 73 46 340 296 290 268 243 229 224 223 228 234 232 231 230 230 225 218 214 213 210 210 212 215
58 56 62 124 294 302 344 19 5 73 82 70 100 95 76 65 137 94 112 114 116 131 125 117 100 74 62 118 274 282 275 265 246 233 231 233 234 235 234 236 235 235 230 225 222 218 215 213 215
102 75 140 158 206 348 330 360 18 36 56 37 95 82 109 80 86 98 95 93 92 91 135 84 44 15 335 330 298 253 255 267 251 246 241 240 240 240 239 238 237 237 235 231 229 227 223 219 220
98 95 88 311 179 122 331 25 44 40 38 79 87 89 103 108 105 103 102 87 68 58 56 47 13 331 322 310 311 294 240 243 245 252 245 246 245 243 244 241 239 238 239 237 234 232 230 228 229
101 65 155 188 155 182 331 15 61 78 85 65 80 106 117 152 141 139 121 85 62 42 32 28 20 18 353 306 294 297 295 253 242 247 253 252 248 246 245 245 243 241 239 238 237 235 234 234 235
83 107 215 216 170 170 170 287 334 123 123 94 93 104 123 123 130 272 7 17 17 18 10 358 355 356 350 344 337 307 286 306 271 259 254 255 256 255 249 247 245 243 242 239 237 236 234 235 236
81 172 211 229 245 192 207 188 167 15 86 184 146 121 118 115 112 65 37 20 8 1 354 351 347 341 339 338 332 329 322 289 288 276 264 257 257 255 254 249 244 241 239 239 237 235 235 237 237
39 234 179 294 320 214 176 178 94 104 128 137 142 138 132 110 75 54 31 6 349 347 344 345 340 332 328 324 322 319 315 308 302 304 292 273 265 264 258 256 250 244 241 241 239 237 237 238 237
166 313 307 281 293 257 218 202 130 105 135 140 132 126 101 79 63 39 23 7 352 340 337 336 335 329 323 317 313 309 303 297 296 292 291 284 275 269 266 258 256 249 246 242 241 240 237 237 237
311 290 285 289 267 228 179 172 115 146 141 126 120 99 82 62 44 25 8 358 351 346 340 337 330 325 322 319 313 308 302 296 287 284 283 277 281 269 266 268 258 253 251 246 244 243 241 238 236
295 319 320 244 254 231 208 56 50 137 160 127 103 86 67 48 28 19 8 358 348 344 340 335 331 327 319 315 313 310 306 300 294 285 271 270 267 273 269 264 262 254 252 251 247 246 242 239 237
355 53 356 297 99 299 162 191 94 134 163 98 83 63 44 33 24 10 359 354 352 348 346 343 337 331 326 320 314 309 305 302 299 290 280 267 261 256 262 266 261 256 254 249 249 245 243 239 236
2 244 221 317 177 236 70 159 102 136 153 104 81 54 34 18 9 6 3 358 355 351 344 338 335 330 326 321 315 311 308 303 298 297 287 276 266 259 253 254 260 259 257 249 248 247 243 241 236
247 254 263 244 303 52 61 140 118 86 127 100 60 35 22 11 6 359 354 352 351 349 347 343 339 335 331 329 324 319 315 309 302 298 296 286 273 263 258 254 252 251 253 254 252 248 244 241 240
99 283 283 272 263 320 269 192 184 152 100 61 29 18 11 10 4 360 359 358 355 352 350 347 342 339 337 334 332 328 327 322 316 306 299 296 286 272 264 258 256 253 251 256 261 247 241 235 236
232 257 266 285 261 190 171 229 200 218 180 111 31 11 3 360 1 360 1 360 358 356 353 350 348 347 346 344 339 335 330 327 325 317 308 300 294 287 280 264 253 252 253 247 245 263 229 227 224
223 210 235 235 315 62 150 252 204 190 162 160 29 12 8 4 359 359 1 2 360 359 357 355 352 349 346 343 339 337 334 331 332 327 317 309 301 295 284 268 257 251 249 252 247 256 214 228 221
251 208 234 224 169 243 157 280 224 183 181 192 201 5 5 3 2 1 0 3 4 3 0 358 354 351 347 344 342 340 336 331 329 325 320 315 303 298 293 276 263 250 246 245 243 246 242 255 241
233 244 208 204 201 67 194 256 210 130 220 202 161 24 7 5 1 5 6 6 7 5 3 0 357 352 349 346 346 340 334 330 328 326 320 315 309 302 297 286 270 252 245 238 237 236 224 212 234
5 351 39 53 92 261 182 180 273 186 208 137 156 107 3 5 10 9 9 8 12 10 7 6 2 357 353 349 347 346 339 334 332 328 317 313 308 303 293 285 280 262 246 237 232 228 225 222 231
169 96 294 278 146 246 186 197 259 180 167 144 154 152 16 8 13 10 10 11 17 14 10 9 6 2 358 353 352 353 348 342 334 322 322 320 315 312 299 279 267 257 258 238 230 232 230 233 218
200 190 192 235 214 263 120 222 258 137 141 137 137 131 52 15 15 15 13 15 18 16 13 12 10 7 0 359 360 3 355 352 346 339 331 327 318 306 295 292 272 240 239 229 227 227 231 239 228
254 195 231 251 360 312 248 297 304 142 156 162 161 142 51 10 15 17 16 16 16 17 17 17 13 10 8 9 8 7 5 5 4 2 350 341 320 307 306 294 269 235 238 224 225 213 218 231 240
206 170 97 80 225 227 258 269 240 219 208 178 168 158 97 358 7 17 20 21 23 17 16 19 22 17 15 21 21 23 15 19 20 24 22 24 22 336 335 358 323 196 210 207 219 214 213 213 206
3 359 99 310 242 235 247 256 216 232 191 177 181 168 164 321 4 24 26 24 27 25 21 22 24 25 20 25 29 33 33 38 40 39 40 44 43 50 44 54 72 103 140 164 163 161 154 180 185
181 177 114 201 215 241 157 260 348 101 135 160 169 167 172 324 55 41 30 28 30 27 27 30 29 31 25 23 34 40 44 49 56 57 59 58 55 61 70 73 72 72 94 116 134 142 126 125 125